sat.trackr.live / text

‹ back to catalog

STARLINK-32427

NORAD 61848 · 2024-202D

PAYLOAD ACTIVE UNKNOWN

§ Identity

Operator
Country
US
Launch date
2024-11-07
Launch site
AFETR
Launch vehicle
Mass (kg)
RCS (m²)

Purposes: comms

External: N2YO · Heavens-Above · Gunter

§ Orbital elements

Epoch: 2026-05-25T01:06:32.827392Z

Period
94.27 min
Inclination
43.0015°
Eccentricity
0.0001266
Mean motion
15.27567112 rev/d
Perigee alt
482.2 km
Apogee alt
484.0 km
Semi-major
6,861.2 km
B*
-3.7137e-5
RAAN
155.6712°
Arg perigee
271.7601°
Mean anomaly
88.3105°
Rev number
8,713

§ Raw data

STARLINK-324271 61848U 24202D   26145.04621328 -.00001283  00000+0 -37137-4 0  99912 61848  43.0015 155.6712 0001266 271.7601  88.3105 15.27567112 87139

JSON: /api/v1/satellites/61848 · /tle

For live sub-satellite position, see the globe view (requires WebGL).

§ Visibility from observer

Set your observer location to see the next 7 days of passes ≥ 10°. The values pass through the URL so the page stays shareable.

No JS? Fill the form by hand. The geolocation button needs JavaScript.